www.pogodaiklimat.ru

Погода и климат >> Архив погоды >> Туркменистан >> Койтендаг


ПОГОДА в Койтендаге

  • Прогноз погоды в Койтендаге
  • Монитор погоды в Койтендаге

АРХИВ ПОГОДЫ в Койтендаге

Время (UTC), дата Ветер
(напр.,м/с)
 
Видим.   Явления Облачность Т
(С)
Тd
(С)
f
(%)
Тe
(С)
Тes
(С)
Комфортность P
(гПа)
Po
(гПа)
Тmin
(С)
Tmax
(С)
R
(мм)
R24
(мм)
S
(см)
21 16.08 З 1 10 км ясно +23.8 +7.1 34 +24 +24 комфорт 1009.6 979.2
00 17.08 штиль 0 10 км ясно +19.9 +8.9 49 +21 +21 комфорт 1010.1 979.3
03 17.08 штиль 0 10 км ясно +20.6 +9.5 49 +22 +27 комфорт 1010.6 979.9 +19.3
06 17.08 З 2 10 км ясно +29.0 +9.5 30 +29 +45 жарко 1010.0 980.1 +19.3
09 17.08 З 2 10 км ясно +32.8 +5.1 18 +31 +47 жарко 1008.6 979.1
12 17.08 З 1 10 км ясно +33.6 +0.9 13 +30 +36 жарко 1006.7 977.4
15 17.08 З 1 10 км ясно +29.4 +6.5 24 +28 +28 жарко 1006.5 976.9 +33.8
18 17.08 штиль 0 10 км ясно +26.4 +6.4 28 +26 +26 жарко 1007.2 977.3 +33.8
21 17.08 З 1 10 км ясно +20.8 +9.9 50 +24 +24 комфорт 1007.5 977.0
00 18.08 штиль 0 10 км ясно +18.6 +11.1 62 +19 +19 1007.4 976.7
03 18.08 штиль 0 10 км ясно +19.6 +11.0 58 +21 +26 комфорт 1009.5 978.7 +18.4
06 18.08 В 1 10 км ясно +27.6 +8.4 30 +27 +46 жарко 1010.1 980.1 +18.4
09 18.08 штиль 0 10 км ясно +32.6 +5.5 18 +30 +52 опасность
солнечного
удара
1009.6 980.1
12 18.08 штиль 0 10 км ясно +34.5 +3.2 14 +32 +37 жарко 1008.4 979.0
15 18.08 штиль 0 10 км ясно +34.3 +4.1 15 +32 +32 жарко 1008.6 979.2 +35.3
18 18.08 Ю 2 10 км ясно +26.0 +10.0 37 +27 +27 жарко 1009.5 979.3 +35.3
21 18.08 штиль 0 10 км ясно +22.6 +3.9 29 +23 +23 комфорт 1009.5 979.0
00 19.08 штиль 0 10 км ясно +20.2 +9.5 50 +21 +21 комфорт 1010.0 979.3
03 19.08 штиль 0 10 км ясно +23.6 +8.4 38 +24 +29 комфорт 1010.9 980.5 +19.0
06 19.08 ЮЗ 2 10 км ясно +30.2 +5.9 22 +29 +44 жарко 1011.2 981.4 +19.0
09 19.08 ЮЗ 3 10 км ясно +34.4 +2.9 14 +31 +45 жарко 1010.3 980.9
12 19.08 ЮЗ 3 10 км ясно +35.8 +5.1 15 +33 +37 жарко 1010.1 980.9 +5.1
15 19.08 ЮЗ 2 10 км ясно +31.1 +7.6 23 +30 +30 жарко 1009.9 980.2 +36.5
18 19.08 ЮЗ 1 10 км ясно +29.1 +7.0 25 +28 +28 жарко 1009.9 980.0 +36.5
21 19.08 З 2 10 км ясно +25.4 +5.5 28 +25 +25 комфорт 1010.0 979.7
00 20.08 штиль 0 10 км ясно +20.4 +5.8 38 +21 +21 комфорт 1010.5 979.7
03 20.08 штиль 0 10 км ясно +21.8 +5.9 36 +22 +27 комфорт 1011.2 980.6 +19.3
06 20.08 штиль 0 10 км ясно +29.3 +7.3 25 +28 +49 жарко 1011.7 981.9 +19.3
09 20.08 З 2 10 км ясно +35.0 +8.9 20 +33 +49 жарко 1010.3 981.0
12 20.08 З 3 10 км ясно +36.4 +4.6 14 +34 +37 очень
жарко
1008.8 979.6
15 20.08 З 1 10 км ясно +31.1 +7.8 23 +30 +30 жарко 1008.9 979.2 +36.6
18 20.08 штиль 0 10 км ясно +29.4 +6.2 23 +28 +28 жарко 1008.7 978.9 +36.6
21 20.08 штиль 0 10 км ясно +22.6 +7.4 38 +24 +24 комфорт 1009.2 978.7
00 21.08 штиль 0 10 км ясно +19.7 +7.1 44 +20 +20 978.6 978.6
03 21.08 штиль 0 10 км ясно +21.8 +7.6 40 +23 +27 комфорт 1010.4 979.8 +19.3
06 21.08 Ю 1 10 км ясно +29.2 +9.9 30 +29 +47 жарко 1009.9 980.1 +19.3
09 21.08 Ю 2 10 км ясно +35.2 +8.1 19 +33 +49 жарко 1008.1 978.9
12 21.08 З 2 10 км ясно +37.0 +6.4 15 +34 +39 очень
жарко
1006.3 977.4
15 21.08 З 2 10 км ясно +31.6 +8.0 23 +30 +30 жарко 1006.6 977.2 +37.5
18 21.08 З 1 10 км ясно +29.6 +7.6 25 +29 +29 жарко 1006.4 976.8 +37.5
21 21.08 штиль 0 10 км ясно +24.2 +10.7 43 +25 +25 комфорт 1006.5 976.4
00 22.08 штиль 0 10 км ясно +21.2 +9.4 47 +23 +23 комфорт 1006.9 976.5
03 22.08 штиль 0 10 км ясно +22.7 +10.4 46 +25 +29 комфорт 1008.0 977.5 +20.6
06 22.08 Ю 1 10 км ясно +31.8 +8.0 23 +31 +48 жарко 1007.5 977.9 +20.6
09 22.08 Ю 2 10 км ясно +37.1 +3.6 13 +34 +50 очень
жарко
1007.3 978.2
12 22.08 штиль 0 10 км ясно +38.0 +1.9 11 +35 +40 очень
жарко
1004.2 975.3
15 22.08 штиль 0 10 км ясно +34.4 +2.9 14 +31 +31 жарко 1004.3 975.1 +38.3
18 22.08 штиль 0 10 км ясно +31.6 +6.1 20 +30 +30 жарко 1004.5 975.1 +38.3
21 22.08 штиль 0 10 км ясно +27.0 +9.0 32 +27 +27 жарко 1004.7 974.8
00 23.08 В 1 10 км ясно +22.0 +11.0 50 +24 +24 комфорт 1005.4 975.0
03 23.08 В 1 10 км ясно +22.4 +11.3 49 +25 +28 комфорт 1006.9 976.6 +19.6
06 23.08 штиль 0 10 км ясно +31.1 +11.1 29 +31 +51 опасность
солнечного
удара
1007.5 977.9 +19.6
09 23.08 ЮВ 2 10 км ясно +37.3 +9.4 18 +36 +51 опасность
солнечного
удара
1006.2 977.3
12 23.08 СЗ 6 10 км ясно +37.8 +3.0 12 +35 +36 очень
жарко
1004.9 976.0
15 23.08 СЗ 6 10 км ясно +33.2 +4.6 17 +31 +31 жарко 1007.1 977.6 +39.0

 

Местоположение метеостанции Койтендаг (Дашогузский велаят, Туркменистан): широта 37.52 долгота 66.02 высота над уровнем моря 265 м.

В архиве по умолчанию представлена погода в Койтендаге за последнюю неделю. Архивные данные за месяц целиком и за предыдущие месяцы, начиная с января 2011 года, Вы можете получить, выбрав интересующий диапазон дат из раскрывающегося списка и нажав кнопку "Ввод!".


*Определитесь, кто Вы:
робот инопланетянин человек

Внимание! Время в таблицах - всемирное. Для получения местного времени необходимо прибавить поправку, которая равна 5 ч.

Смотрите также архив погоды в соседних городах и на ближайших метеорологических станциях:

Погода в Атамурате (Лебапский велаят, Туркменистан) (80 км)
Погода в Ширабаде (Сухрандарьинская область, Узбекистан) (90 км)
Погода в Дехканабаде (Сырдарьинская область, Узбекистан) (101 км)
Погода в Акрабате (Узбекистан) (108 км)
Погода в Термезе (Сухрандарьинская область, Узбекистан) (115 км)
Погода в Гузаре (Кашкадарьинская область, Узбекистан) (124 км)
Погода в Байсуне (Сухрандарьинская область, Узбекистан) (128 км)
Погода в Мазари-Шарифе (Афганистан) (139 км)
Погода в Карши (Кашкадарьинская область, Узбекистан) (145 км)
Погода в Минчукуре (Кашкадарьинская область, Узбекистан) (149 км)

Пояснения к столбцам:

Ветер - указаны скорость ветра в м/с - средняя за 10 мин, порывы в срок и между сроками (в фигурных скобках) и направление, откуда дует ветер: С - северный, СВ - северо-восточный, В - восточный, ЮВ - юго-восточный, Ю - южный, ЮЗ - юго-западный, З - западный, СЗ - северо-западный.
Видимость - горизонтальная дальность видимости в метрах или километрах. При видимости от 1 до 10 км при отсутствии осадков обычно наблюдается дымка, при ухудшении видимости до 1 км и менее - туман. В сухую погоду видимость может ухудшаться дымом, пылью или мглою.
Явления - указаны атмосферные явления, наблюдавшиеся в срок или в последний час перед сроком; фигурными скобками обозначены явления, наблюдавшиеся между сроками (за 1-3 часа до срока); квадратными скобками обозначены град или гололедные отложения с указанием их диаметра в мм.
Облачность - указаны через наклонную черту общая и нижняя облачность в баллах и высота нижней границы облаков в метрах; квадратными скобками обозначены формы облаков: Ci - перистые, Cs - перисто-слоистые, Cc - перисто-кучевые, Ac - высококучевые, As - высокослоистые, Sc - слоисто-кучевые, Ns - слоисто-дождевые, Cu - кучевые, Cb - кучево-дождевые. Подробнее классификацию облаков см. в Атласе облаков (PDF).
T - Температура воздуха - температура, измеренная на высоте 2 м над землей.
Td - Температура точки росы - температура, при понижении до которой содержащийся в воздухе водяной пар достигнет насыщения.
f - Относительная влажность воздуха - влажноcть воздуха, измеренная на высоте 2 м над землей.
Te - Эффективная температура - температура, которую ощущает одетый по сезону человек в тени. Характеристика душности погоды. При расчете учитывается влияние влажности воздуха и скорости ветра на теплоощущения человека.
Tes - Эффективная температура на солнце - температура, которую ощущает человек, с поправкой на солнечный нагрев. Характеристика знойности погоды. Зависит от высоты солнца над горизонтом, облачности и скорости ветра. Ночью, в пасмурную погоду, а также при ветре 12 м/с и более поправка равна нулю.
P - Атмосферное давление - приведенное к уровню моря атмосферное давление.
Po - Атмосферное давление - измеренное на уровне метеостанции атмосферное давление.
Tmin - Минимальная температура - минимум температуры воздуха на высоте 2 м над землей.
Tmax - Максимальная температура - максимум температуры воздуха на высоте 2 м над землей.
R - Количество осадков - Количество выпавших осадков за период времени, мм. При наведении курсора мыши на число - период времени, за который выпало указанное количество осадков.
R24 - Количество осадков - Количество выпавших осадков за 24 часа, мм.
S - Снежный покров - Высота снежного покрова, см. При наведении курсора мыши на число - состояние снежного покрова и степень покрытия местности в баллах.